DW6399 Weather Reports


time (UTC)temp
F
wind
direction
speed
knots
gust
knots
rain 1hr
in
rain 24hr
in
rain mn
in
humidity
%
barometer
mb
20220627215404 70 65 2.6 7.0 0.00 0.00 0.00 76 1021.5
20220627214504 70 72 2.6 7.0 0.00 0.00 0.00 76 1021.4
20220627213604 71 64 1.7 6.1 0.00 0.00 0.00 75 1021.4
20220627212704 71 70 1.7 6.1 0.00 0.00 0.00 75 1021.4
20220627211805 71 64 1.7 5.2 0.00 0.00 0.00 74 1021.4
20220627210904 72 66 2.6 4.3 0.00 0.00 0.00 73 1021.2
20220627210007 72 88 1.7 7.0 0.00 0.00 0.00 73 1021.2
20220627205404 72 81 1.7 7.0 0.00 0.00 0.00 73 1021.2
20220627204504 72 85 2.6 5.2 0.00 0.00 0.00 73 1021.1
20220627203604 72 77 1.7 5.2 0.00 0.00 0.00 73 1021.1
20220627202704 73 71 1.7 2.6 0.00 0.00 0.00 72 1021.0
20220627201804 73 72 1.7 6.1 0.00 0.00 0.00 71 1020.9
20220627200904 74 76 1.7 6.1 0.00 0.00 0.00 70 1020.7
20220627200004 74 86 1.7 6.1 0.00 0.00 0.00 70 1020.7
20220627195404 74 91 1.7 5.2 0.00 0.00 0.00 70 1020.7
20220627194504 75 88 1.7 7.0 0.00 0.00 0.00 70 1020.7
20220627193604 75 76 0.9 7.0 0.00 0.00 0.00 69 1020.6
20220627192704 75 91 1.7 5.2 0.00 0.00 0.00 68 1020.4
20220627191805 76 80 0.9 4.3 0.00 0.00 0.00 68 1020.3
20220627190904 76 70 0.9 5.2 0.00 0.00 0.00 68 1020.3
20220627190004 78 77 0.9 3.5 0.00 0.00 0.00 65 1020.3
20220627185404 78 89 1.7 5.2 0.00 0.00 0.00 64 1020.2
20220627184504 79 65 1.7 3.5 0.00 0.00 0.00 64 1020.1
20220627183604 80 73 1.7 3.5 0.00 0.00 0.00 63 1020.2
20220627182704 81 92 1.7 3.5 0.00 0.00 0.00 60 1020.1
20220627181804 81 113 2.6 6.1 0.00 0.00 0.00 58 1020.1
20220627180904 82 120 2.6 6.1 0.00 0.00 0.00 57 1020.1
20220627180004 83 114 1.7 6.1 0.00 0.00 0.00 55 1020.1
20220627175404 83 104 1.7 4.3 0.00 0.00 0.00 55 1020.0
20220627174504 84 105 1.7 6.1 0.00 0.00 0.00 53 1020.0
20220627173604 85 104 1.7 6.1 0.00 0.00 0.00 52 1020.0
20220627172705 85 122 1.7 5.2 0.00 0.00 0.00 51 1019.9
20220627171804 85 110 0.9 5.2 0.00 0.00 0.00 52 1019.9
20220627170904 85 124 0.9 1.7 0.00 0.00 0.00 52 1020.0
20220627170005 85 122 1.7 3.5 0.00 0.00 0.00 54 1020.0
20220627165404 85 120 1.7 3.5 0.00 0.00 0.00 50 1019.9
20220627164504 85 125 1.7 3.5 0.00 0.00 0.00 48 1019.8
20220627163604 85 134 2.6 5.2 0.00 0.00 0.00 49 1019.8
20220627162704 86 130 2.6 5.2 0.00 0.00 0.00 49 1019.9
20220627161806 86 142 2.6 6.1 0.00 0.00 0.00 48 1019.9
20220627160904 86 101 1.7 6.1 0.00 0.00 0.00 49 1019.9
20220627160004 86 115 2.6 4.3 0.00 0.00 0.00 50 1020.0
20220627155404 86 107 1.7 5.2 0.00 0.00 0.00 47 1020.0
20220627154504 86 138 0.9 4.3 0.00 0.00 0.00 50 1020.0
20220627153604 85 111 2.6 5.2 0.00 0.00 0.00 49 1020.1
20220627152704 86 140 3.5 6.1 0.00 0.00 0.00 50 1020.2
20220627151804 86 136 3.5 10.4 0.00 0.00 0.00 49 1020.2
20220627150904 86 111 2.6 4.3 0.00 0.00 0.00 50 1020.2
20220627150004 86 136 0.9 6.1 0.00 0.00 0.00 49 1020.2
20220627145404 86 133 0.9 6.1 0.00 0.00 0.00 48 1020.2
20220627144504 86 160 3.5 5.2 0.00 0.00 0.00 48 1020.2
20220627143604 86 147 2.6 7.0 0.00 0.00 0.00 48 1020.2
20220627142704 87 132 1.7 4.3 0.00 0.00 0.00 48 1020.3
20220627141804 86 146 2.6 5.2 0.00 0.00 0.00 47 1020.4
20220627140906 87 141 1.7 5.2 0.00 0.00 0.00 47 1020.3
20220627140004 86 78 1.7 5.2 0.00 0.00 0.00 50 1020.4
20220627135404 85 122 2.6 5.2 0.00 0.00 0.00 50 1020.4
20220627134504 84 134 2.6 7.8 0.00 0.00 0.00 49 1020.5
20220627133604 85 67 1.7 5.2 0.00 0.00 0.00 49 1020.5
20220627132704 85 137 3.5 7.0 0.00 0.00 0.00 49 1020.6
20220627131806 86 153 3.5 7.8 0.00 0.00 0.00 48 1020.7
20220627130904 86 133 2.6 6.1 0.00 0.00 0.00 51 1020.7
20220627130005 85 157 2.6 6.1 0.00 0.00 0.00 49 1020.8
20220627125404 85 171 3.5 6.1 0.00 0.00 0.00 49 1020.8
20220627124506 85 144 3.5 7.8 0.00 0.00 0.00 50 1020.8
20220627123604 85 153 3.5 7.8 0.00 0.00 0.00 49 1020.8
20220627122704 86 165 4.3 10.4 0.00 0.00 0.00 49 1020.9
20220627121804 85 155 3.5 10.4 0.00 0.00 0.00 48 1020.9
20220627120904 86 142 1.7 6.1 0.00 0.00 0.00 49 1020.9
20220627120004 86 195 1.7 4.3 0.00 0.00 0.00 48 1021.0
20220627115404 86 183 2.6 5.2 0.00 0.00 0.00 48 1021.0
20220627114504 85 168 3.5 7.0 0.00 0.00 0.00 50 1021.1
20220627113604 85 165 2.6 9.6 0.00 0.00 0.00 49 1021.1
20220627112704 85 183 4.3 7.0 0.00 0.00 0.00 50 1021.1
20220627111804 85 164 3.5 10.4 0.00 0.00 0.00 50 1021.2
20220627110904 84 154 4.3 7.0 0.00 0.00 0.00 52 1021.2
20220627110004 84 155 4.3 8.7 0.00 0.00 0.00 49 1021.2
20220627105404 85 164 2.6 8.7 0.00 0.00 0.00 49 1021.2
20220627104507 85 183 2.6 7.8 0.00 0.00 0.00 50 1021.2
20220627103604 84 165 2.6 9.6 0.00 0.00 0.00 51 1021.3
20220627102704 84 174 2.6 7.0 0.00 0.00 0.00 53 1021.4
20220627101804 84 195 1.7 5.2 0.00 0.00 0.00 52 1021.3
20220627100904 84 174 2.6 7.8 0.00 0.00 0.00 52 1021.4
20220627100005 84 177 1.7 7.0 0.00 0.00 0.00 52 1021.4
20220627095404 83 249 2.6 5.2 0.00 0.00 0.00 56 1021.3
20220627094506 83 176 2.6 8.7 0.00 0.00 0.00 52 1021.3
20220627093605 83 165 2.6 7.0 0.00 0.00 0.00 52 1021.4
20220627092704 83 154 2.6 6.1 0.00 0.00 0.00 58 1021.3
20220627091804 82 189 2.6 6.1 0.00 0.00 0.00 55 1021.4
20220627090904 82 163 3.5 5.2 0.00 0.00 0.00 54 1021.4
20220627090006 81 156 3.5 7.0 0.00 0.00 0.00 57 1021.5
20220627085404 82 131 2.6 7.8 0.00 0.00 0.00 55 1021.5
20220627084504 82 157 1.7 7.0 0.00 0.00 0.00 55 1021.5
20220627083604 81 143 2.6 7.0 0.00 0.00 0.00 56 1021.6
20220627082704 81 143 0.9 7.8 0.00 0.00 0.00 55 1021.6
20220627081804 80 170 1.7 4.3 0.00 0.00 0.00 58 1021.6
20220627080904 79 163 2.6 5.2 0.00 0.00 0.00 57 1021.6
20220627080004 80 154 2.6 4.3 0.00 0.00 0.00 59 1021.7
20220627075405 79 125 2.6 5.2 0.00 0.00 0.00 58 1021.7
20220627074504 80 103 2.6 6.1 0.00 0.00 0.00 58 1021.6
20220627073604 79 92 2.6 5.2 0.00 0.00 0.00 59 1021.5
20220627072704 79 90 1.7 6.1 0.00 0.00 0.00 61 1021.5
20220627071806 78 119 1.7 3.5 0.00 0.00 0.00 62 1021.5
20220627070904 78 154 1.7 5.2 0.00 0.00 0.00 60 1021.4
20220627070004 78 155 1.7 5.2 0.00 0.00 0.00 61 1021.4
20220627065404 78 150 2.6 5.2 0.00 0.00 0.00 61 1021.4
20220627064506 78 137 1.7 6.1 0.00 0.00 0.00 61 1021.4
20220627063604 77 151 1.7 4.3 0.00 0.00 0.00 62 1021.4
20220627062704 76 130 2.6 5.2 0.00 0.00 0.00 64 1021.4
20220627061806 75 149 2.6 6.1 0.00 0.00 0.00 64 1021.3
20220627060904 75 129 2.6 6.1 0.00 0.00 0.00 65 1021.3
20220627060005 74 133 2.6 4.3 0.00 0.00 0.00 65 1021.3
20220627055404 73 145 1.7 5.2 0.00 0.00 0.00 66 1021.3
20220627054504 72 149 1.7 4.3 0.00 0.00 0.00 67 1021.3
20220627053604 72 130 1.7 5.2 0.00 0.00 0.00 68 1021.3
20220627052704 71 120 2.6 5.2 0.00 0.00 0.00 69 1021.4
20220627051804 71 121 2.6 6.1 0.00 0.00 0.00 69 1021.4
20220627050904 70 121 1.7 3.5 0.00 0.00 0.00 70 1021.3
20220627050004 69 127 1.7 2.6 0.00 0.00 0.00 72 1021.3
20220627045404 69 116 1.7 2.6 0.00 0.00 0.00 72 1021.3
20220627044504 68 127 1.7 4.3 0.00 0.00 0.00 73 1021.3
20220627043604 68 140 1.7 5.2 0.00 0.00 0.00 73 1021.2
20220627042704 67 147 0.9 3.5 0.00 0.00 0.00 75 1021.2
20220627041805 66 173 0.9 2.6 0.00 0.00 0.00 75 1021.1
20220627040904 65 177 0.9 3.5 0.00 0.00 0.00 74 1021.2
20220627040006 65 173 0.9 3.5 0.00 0.00 0.00 75 1021.2
20220627035404 64 175 0.9 1.7 0.00 0.00 0.00 76 1021.2
20220627034505 63 173 0.9 1.7 0.00 0.00 0.00 78 1021.2
20220627033604 62 0 0.0 1.7 0.00 0.00 0.00 79 1021.2
20220627032704 62 0 0.0 1.7 0.00 0.00 0.00 80 1021.2
20220627031804 61 132 0.0 1.7 0.00 0.00 0.00 80 1021.2
20220627030904 61 127 0.0 1.7 0.00 0.00 0.00 81 1021.2
20220627030004 60 120 0.9 1.7 0.00 0.00 0.00 81 1021.2
20220627025404 60 120 0.9 1.7 0.00 0.00 0.00 82 1021.3
20220627024504 58 138 0.0 1.7 0.00 0.00 0.00 83 1021.3
20220627023604 58 0 0.0 2.6 0.00 0.00 0.00 85 1021.3
20220627022704 57 0 0.0 0.0 0.00 0.00 0.00 87 1021.3
20220627021804 57 0 0.0 0.0 0.00 0.00 0.00 87 1021.2
20220627020905 57 0 0.0 0.0 0.00 0.00 0.00 88 1021.2
20220627020004 56 0 0.0 0.0 0.00 0.00 0.00 88 1021.2
20220627015404 56 0 0.0 1.7 0.00 0.00 0.00 89 1021.1
20220627014504 56 0 0.0 1.7 0.00 0.00 0.00 88 1021.2
20220627013604 56 0 0.0 0.0 0.00 0.00 0.00 89 1021.1
20220627012705 56 0 0.0 0.0 0.00 0.00 0.00 89 1021.0
20220627011804 56 0 0.0 0.0 0.00 0.00 0.00 89 1021.0
20220627010904 56 0 0.9 0.0 0.00 0.00 0.00 88 1021.0
20220627010004 56 318 0.9 1.7 0.00 0.00 0.00 88 1020.9
20220627005404 56 320 0.0 2.6 0.00 0.00 0.00 87 1020.9
20220627004506 56 0 0.0 0.9 0.00 0.00 0.00 87 1020.9
20220627003604 56 327 0.9 1.7 0.00 0.00 0.00 86 1020.9
20220627002705 56 327 0.9 1.7 0.00 0.00 0.00 87 1020.9
20220627001804 56 0 0.0 1.7 0.00 0.00 0.00 86 1020.8
20220627000906 56 0 0.0 0.0 0.00 0.00 0.00 86 1020.7
20220627000004 56 0 0.0 0.0 0.00 0.00 0.00 85 1020.7
20220626235406 56 0 0.0 0.0 0.00 0.00 0.00 85 1020.7
20220626234504 57 0 0.0 0.0 0.00 0.00 0.00 82 1020.7
20220626233604 58 0 0.0 0.0 0.00 0.00 0.00 83 1020.6
20220626232704 58 0 0.0 0.0 0.00 0.00 0.00 82 1020.6
20220626231804 58 0 0.0 0.0 0.00 0.00 0.00 82 1020.5
20220626230904 58 327 0.9 0.9 0.00 0.00 0.00 82 1020.4
20220626230004 58 327 0.0 0.9 0.00 0.00 0.00 82 1020.4
20220626225404 59 327 0.0 0.9 0.00 0.00 0.00 83 1020.4
20220626224505 58 327 0.9 1.7 0.00 0.00 0.00 83 1020.4
20220626223604 59 327 0.0 1.7 0.00 0.00 0.00 81 1020.4
20220626222704 59 327 0.9 1.7 0.00 0.00 0.00 82 1020.3
20220626221804 59 327 0.0 1.7 0.00 0.00 0.00 81 1020.3
20220626220905 60 0 0.0 0.0 0.00 0.00 0.00 82 1020.3
20220626220004 59 0 0.0 0.0 0.00 0.00 0.00 83 1020.4